User: anonymous   Login
Location: NJAA Observatory
(40.6819°N, 74.8979°W)
Time: 05:47:49
(UTC-04:00)
Language:

ALOS - Orbit

View from above orbital plane
View from above orbital plane
View from above satellite
View from above satellite

Ground track
Ground track

The orbit data is extracted from the following two-line orbital elements,

1 28931U 06002A   15182.85786994  .00000257  00000-0  60307-4 0  9998
2 28931 097.9308 231.6739 0002559 083.6238 276.5254 14.61903219502782
Epoch (UTC): 01 July 2015 20:35:19
Eccentricity: 0.0002559
inclination: 97.9308°
perigee height: 685 km
apogee height: 689 km
right ascension of ascending node: 231.6739°
argument of perigee: 83.6238°
revolutions per day: 14.61903219
mean anomaly at epoch: 276.5254°
orbit number at epoch: 50278

The dashed part of the orbit path shows where the satellite is in the earth's shadow,  

DLR